Weather History for Barksdale AFB, LA

Change the Weather History Date:

Friday, March 29, 2013

  Actual Average Record
Temperature  
Mean Temperature 66 °F -  
Max Temperature 76 °F 69 °F 85 °F (2007)
Min Temperature 58 °F 50 °F 38 °F (2009)
Cooling Degree Days 2    
Growing Degree Days 16 (Base 50)    
Moisture  
Dew Point 53 °F    
Average Humidity 66    
Maximum Humidity 85    
Minimum Humidity 47    
Precipitation  
Precipitation 0.00 in - - ()
Sea Level Pressure  
Sea Level Pressure 30.19 in    
Wind  
Wind Speed 8 mph (SSW)    
Max Wind Speed 12 mph    
Max Gust Speed 17 mph    
Visibility 10 miles    
Events      
Averages and records for this station are not official NWS values.
T = Trace of Precipitation, MM = Missing Value Source: NWS Daily Summary

Daily Weather History Graph

Daily Weather History Graph

Search for Another Location

Airport:

Trip Planner

Search our weather history database for the weather conditions in past years. The results will help you decide how hot, cold, wet, or windy it might be!

Date:

Astronomy

Mar. 29, 2013 Rise Set
Actual Time 7:06 AM CDT 7:32 PM CDT
Civil Twilight 6:41 AM CDT 7:57 PM CDT
Nautical Twilight 6:12 AM CDT 8:26 PM CDT
Astronomical Twilight 5:43 AM CDT 8:55 PM CDT
Moon 10:21 PM CDT (3/29) 8:25 AM CDT (3/29)
Length of Visible Light 13h 15m
Length of Day
12h 26m
Waning Gibbous, 93% of the Moon is Illuminated
Mar 29
Waning Gibbous
Apr 2
Last Quarter
Apr 10
New
Apr 18
First Quarter
Apr 25
Full

Hourly Weather History & Observations

Time (CDT) Temp. Dew Point Humidity Pressure Visibility Wind Dir Wind Speed Gust Speed Precip Events Conditions
12:58 AM 60.1 °F 43.7 °F 55% 30.23 in 10.0 mi SSE 9.2 mph - N/A   Overcast
1:58 AM 60.8 °F 48.4 °F 64% 30.23 in 10.0 mi South 9.2 mph - N/A   Overcast
2:58 AM 59.9 °F 50.0 °F 70% 30.23 in 10.0 mi South 8.1 mph - N/A   Overcast
3:58 AM 58.8 °F 51.3 °F 76% 30.22 in 10.0 mi South 8.1 mph - N/A   Overcast
4:58 AM 58.6 °F 52.2 °F 79% 30.21 in 10.0 mi South 10.4 mph - N/A   Overcast
5:58 AM 58.3 °F 52.9 °F 82% 30.23 in 10.0 mi South 8.1 mph - N/A   Overcast
6:58 AM 58.3 °F 53.2 °F 83% 30.23 in 10.0 mi South 9.2 mph - N/A   Overcast
7:58 AM 58.6 °F 52.9 °F 81% 30.24 in 10.0 mi South 8.1 mph - N/A   Overcast
8:58 AM 60.3 °F 53.4 °F 78% 30.24 in 10.0 mi South 10.4 mph - N/A   Mostly Cloudy
9:58 AM 64.9 °F 54.5 °F 69% 30.25 in 10.0 mi SSW 11.5 mph - N/A   Partly Cloudy
10:58 AM 68.2 °F 54.5 °F 62% 30.24 in 10.0 mi SSW 10.4 mph - N/A   Mostly Cloudy
11:58 AM 71.1 °F 55.4 °F 58% 30.22 in 10.0 mi SSW 8.1 mph - N/A   Partly Cloudy
12:58 PM 75.2 °F 53.6 °F 47% 30.18 in 10.0 mi West 9.2 mph 17.3 mph N/A   Partly Cloudy
1:58 PM - - N/A% - - North - - N/A   Partly Cloudy
2:58 PM - - N/A% - - North - - N/A   Mostly Cloudy
3:56 PM 75.2 °F 53.6 °F 47% 30.13 in 10.0 mi WSW 9.2 mph - N/A   Overcast
4:58 PM 74.8 °F 53.6 °F 47% 30.14 in 10.0 mi SW 5.8 mph - N/A   Overcast
5:58 PM 74.7 °F 53.4 °F 47% 30.13 in 10.0 mi SSW 5.8 mph - N/A   Overcast
6:58 PM 73.4 °F 54.1 °F 51% 30.13 in 10.0 mi SSW 4.6 mph - N/A   Overcast
7:58 PM 70.5 °F 54.7 °F 57% 30.13 in 10.0 mi SSW 4.6 mph - N/A   Overcast
8:58 PM 65.1 °F 54.5 °F 68% 30.13 in 10.0 mi SSE 5.8 mph - N/A   Scattered Clouds
9:58 PM 66.4 °F 54.9 °F 66% 30.13 in 10.0 mi South 6.9 mph - N/A   Partly Cloudy
10:58 PM 59.5 °F 53.8 °F 81% 30.15 in 10.0 mi South 2.3 mph - N/A   Scattered Clouds
11:58 PM 58.1 °F 53.6 °F 85% 30.14 in 10.0 mi South 5.8 mph - N/A   Clear